Theta_e
339 339 343 346 352 354 358 358 355 350 349 346 344 345 348 347 348 345 341 342 340 340 341 338 338 338 336 331 327 327 328 328 329 331 333 339 336 338 337 339 340 339 337 331 332 337 340 340 340
339 345 346 349 356 360 359 357 352 347 345 345 346 346 347 347 346 347 345 342 339 338 338 337 337 330 333 336 333 338 330 329 328 327 329 337 339 340 341 339 341 340 335 330 336 341 342 342 343
342 350 349 351 357 360 359 356 350 346 345 344 344 345 347 348 347 346 342 340 340 337 334 331 331 333 338 335 334 335 333 333 339 335 334 335 336 336 342 340 340 337 330 330 340 340 342 343 344
348 347 347 357 361 356 356 356 346 343 343 343 345 347 348 347 347 344 341 340 339 331 327 334 334 334 338 334 341 334 333 333 336 341 332 337 340 339 339 339 341 337 330 329 337 339 340 343 343
350 350 356 358 358 355 353 354 345 346 345 345 345 347 347 347 345 342 340 338 331 329 335 335 333 332 336 332 336 339 336 338 340 339 337 339 338 336 339 338 341 338 333 331 336 337 339 341 344
351 349 359 360 357 354 354 353 346 344 345 345 346 346 346 346 343 340 335 330 329 333 336 339 339 335 340 333 335 335 338 339 340 340 339 338 336 338 336 340 340 339 333 332 337 338 340 342 342
352 354 358 357 356 356 356 351 350 345 345 345 345 346 345 344 340 337 336 333 335 333 336 337 338 338 337 336 337 337 337 336 334 335 337 336 335 339 336 340 338 339 334 331 334 341 342 342 342
352 349 355 353 356 357 354 352 348 350 346 344 345 345 344 344 343 342 343 335 333 333 334 338 336 339 337 336 335 336 338 336 333 332 336 336 336 335 337 339 339 337 332 331 331 337 340 341 342
350 354 357 354 354 356 352 352 348 349 345 344 344 345 344 344 344 345 343 335 334 334 335 335 334 338 336 333 336 336 338 335 337 336 331 328 332 336 338 338 333 332 331 334 338 339 341 341 343
349 349 352 350 350 354 352 351 350 347 349 349 343 343 344 345 345 347 343 342 340 340 338 340 339 335 335 336 335 336 338 343 343 337 335 332 335 338 337 334 333 330 332 339 341 341 341 342 344
346 351 345 349 351 352 350 349 349 346 348 347 343 343 347 347 347 345 346 343 344 342 345 341 339 342 343 340 335 339 341 344 344 342 338 330 336 337 337 339 342 341 341 344 344 345 345 345 342
347 346 346 349 351 350 349 348 344 344 345 346 343 343 347 347 346 346 346 345 346 346 346 341 343 344 344 341 341 340 343 345 343 343 335 333 335 338 339 341 342 341 342 343 343 342 341 340 341
350 350 345 350 349 347 347 349 353 347 347 346 343 344 346 347 346 346 346 346 347 347 347 344 344 345 344 344 342 342 342 342 344 344 342 339 338 341 342 341 337 339 340 343 341 342 340 341 340
344 347 348 349 351 348 351 350 348 348 348 343 342 343 345 347 347 347 346 347 347 347 345 346 346 345 344 345 346 344 342 344 344 344 344 341 340 340 342 342 342 342 343 343 343 342 340 340 339
332 343 347 349 352 351 348 348 350 347 350 344 342 342 342 346 347 346 344 347 347 347 346 346 346 346 346 347 346 346 343 344 344 345 344 342 340 344 343 341 341 343 339 343 344 344 341 336 336
331 346 346 351 352 352 351 352 345 346 348 347 342 342 342 346 346 344 344 346 347 346 347 343 343 347 346 348 346 346 345 345 344 345 345 345 342 343 342 341 342 342 341 344 345 343 343 342 340
324 329 348 355 352 352 351 347 347 346 348 349 345 342 342 345 346 344 345 347 348 347 344 345 345 343 346 348 347 347 346 345 346 342 343 344 344 343 345 343 342 343 344 345 344 344 345 343 342
325 332 338 351 354 350 350 350 348 347 349 351 346 342 342 345 346 345 347 348 348 347 344 346 345 339 345 349 347 345 343 340 343 343 345 344 342 342 344 345 340 344 344 344 344 344 344 343 342
323 326 351 354 351 351 349 347 348 347 349 351 344 342 342 345 345 347 346 347 348 345 347 343 341 341 345 348 347 347 347 345 344 344 343 342 342 342 344 344 342 343 342 344 344 345 346 342 342
323 328 352 350 349 350 351 353 352 349 350 349 343 342 342 344 344 344 345 346 347 345 346 347 346 343 342 347 347 344 346 346 346 345 345 342 344 343 344 344 341 343 344 344 344 345 343 342 343
321 323 348 350 348 347 349 350 351 348 348 345 344 342 342 344 345 345 344 344 345 345 345 346 346 345 344 347 349 348 349 347 345 348 345 345 344 344 346 342 344 344 344 343 344 345 344 343 344
319 321 341 349 350 355 347 348 347 345 349 347 344 342 341 342 345 345 345 344 344 345 345 346 346 346 344 347 347 348 348 344 345 346 345 345 345 345 343 343 344 343 344 343 343 345 345 344 345
322 323 336 346 344 349 351 350 345 346 352 351 348 344 342 341 343 345 345 345 344 344 345 343 344 345 342 345 346 349 349 347 346 348 346 348 348 347 346 345 345 347 345 342 342 344 345 344 342
324 336 338 338 340 345 344 349 351 351 353 351 348 345 345 344 343 344 345 344 343 344 344 343 342 340 342 343 345 347 347 343 343 350 349 347 349 349 348 347 344 345 346 342 342 342 344 345 344
324 323 327 341 347 343 343 347 343 348 350 350 351 349 346 346 346 342 343 343 343 344 343 343 343 340 339 346 346 346 346 343 347 348 349 347 348 347 348 347 346 340 344 345 341 342 343 343 343
325 324 326 336 337 337 341 349 348 343 343 347 347 349 349 349 348 346 341 343 341 341 341 341 342 342 338 345 347 345 345 345 346 349 346 345 344 342 350 348 346 341 345 345 343 344 343 340 342
324 325 323 327 327 336 344 345 341 345 344 343 342 345 345 350 348 346 343 342 345 346 345 342 343 341 336 340 347 349 347 344 347 348 348 347 348 349 347 346 343 341 343 346 342 340 337 334 337
323 325 330 324 332 339 345 346 346 346 354 351 345 346 347 346 346 347 347 345 345 345 347 346 346 343 340 335 339 345 340 341 346 344 347 346 347 351 351 348 347 341 344 344 343 343 340 339 335
326 327 325 324 324 334 346 346 349 351 350 350 349 347 347 345 345 346 347 347 346 345 346 347 348 346 344 340 339 338 338 338 338 342 348 349 346 348 350 349 348 344 343 347 343 344 339 339 337
326 327 324 327 329 338 338 350 345 343 343 344 345 345 344 344 344 340 337 344 347 342 337 345 346 346 344 344 342 341 339 340 340 340 345 347 349 346 349 350 346 345 344 344 344 343 342 346 340
Wind_Speed
6 9 6 3 2 2 3 7 5 6 4 10 27 12 5 8 2 4 30 24 26 25 24 23 20 17 15 14 14 14 14 15 15 15 17 17 17 17 18 19 20 20 21 21 23 27 29 27 27
10 7 2 0 1 3 3 3 9 15 20 35 22 14 12 5 14 30 32 27 26 25 24 23 20 18 16 14 14 12 13 13 13 14 16 16 16 17 17 19 21 20 20 21 25 25 23 24 22
9 3 2 2 2 3 3 2 14 18 15 15 9 16 7 11 29 34 35 32 27 25 24 22 19 17 15 14 14 13 13 14 13 14 16 17 17 19 18 19 20 21 21 22 24 23 24 21 19
6 3 3 2 2 4 5 2 11 20 20 25 27 13 17 20 22 33 35 32 28 26 24 22 18 16 14 15 14 13 13 14 15 14 16 17 17 18 18 20 18 20 21 24 23 22 20 20 19
4 2 3 4 4 4 4 9 24 8 10 24 33 12 11 17 30 35 34 30 28 26 22 19 17 16 16 15 15 14 15 15 14 15 16 16 18 18 19 19 19 19 21 23 24 22 19 17 20
2 1 2 2 0 2 1 9 20 27 26 28 29 20 10 29 31 33 30 27 25 24 22 20 17 15 15 16 15 15 14 15 15 15 16 17 18 18 19 20 19 20 21 23 25 23 18 19 18
3 2 3 2 4 4 4 12 13 25 27 18 31 15 26 33 30 33 29 26 24 21 20 19 17 16 15 16 16 16 15 16 16 15 16 18 19 19 20 20 20 21 20 22 23 22 18 16 15
1 3 4 1 6 4 10 7 12 16 14 27 37 10 27 38 34 33 28 27 24 19 16 16 16 16 15 15 16 16 16 18 18 17 16 18 19 19 21 21 21 21 22 22 23 22 17 17 15
7 3 5 2 5 6 17 12 9 11 24 21 1 32 42 40 36 35 29 26 22 19 16 14 15 15 15 15 16 17 17 19 20 20 19 18 22 22 22 23 22 23 26 27 26 21 17 14 13
7 1 4 7 12 6 15 21 18 6 8 6 26 29 38 42 39 36 31 26 23 22 20 17 15 17 16 16 17 18 21 18 18 21 21 20 22 22 22 24 25 25 27 26 25 22 18 10 8
8 5 5 10 13 12 16 19 15 21 3 11 32 33 42 44 40 34 29 25 26 25 20 19 21 18 15 17 21 21 17 20 21 17 18 21 21 20 22 24 24 24 24 20 17 14 10 6 5
6 8 8 7 6 10 15 20 18 16 14 25 32 34 38 39 39 34 29 26 27 22 17 19 19 18 18 18 20 19 21 20 20 18 19 20 20 21 20 20 19 20 17 18 17 16 15 13 10
5 11 10 4 2 14 19 19 13 18 24 25 32 31 39 40 37 32 28 26 26 22 17 17 18 14 16 18 20 20 18 18 18 15 17 16 21 18 15 12 17 17 17 16 13 12 10 10 8
11 16 11 17 11 17 14 10 5 18 17 32 33 31 33 36 37 34 31 31 26 22 18 17 20 16 16 18 18 17 17 17 15 14 13 16 17 15 11 12 15 16 13 15 12 11 8 8 3
20 8 9 16 14 10 19 7 7 10 11 24 30 30 30 39 37 37 32 31 25 23 19 20 17 19 15 15 19 16 19 16 12 13 13 15 16 11 11 11 11 12 14 14 15 8 11 16 10
2 1 7 8 15 17 7 5 4 12 7 18 27 28 27 39 40 35 33 30 26 21 22 19 20 19 18 16 17 14 15 14 14 13 16 14 12 11 10 8 10 8 8 13 9 10 7 9 10
4 4 7 9 26 11 5 11 16 29 17 14 25 29 28 35 39 35 34 29 25 20 18 22 22 16 17 16 19 14 14 11 11 12 14 15 14 15 12 10 9 11 11 10 10 8 5 5 8
4 1 2 6 9 6 8 8 20 33 20 19 23 31 25 39 40 37 34 26 26 22 19 24 21 13 19 17 17 15 13 12 14 10 14 13 13 17 18 11 11 12 10 10 9 8 5 7 7
3 5 4 6 8 6 7 14 20 26 22 22 25 30 26 36 40 37 31 28 27 22 21 19 23 15 23 19 15 13 13 11 14 11 11 13 15 17 16 13 15 13 10 9 10 7 4 9 5
5 3 5 8 8 8 6 14 19 25 30 28 27 30 32 33 41 38 34 30 28 24 22 21 18 13 22 16 16 10 12 10 9 12 12 13 16 15 16 15 16 14 9 12 8 7 8 9 5
8 6 9 6 9 4 6 2 4 3 16 23 27 30 37 38 40 40 37 32 30 26 25 22 19 13 20 16 13 12 12 10 10 11 11 13 11 13 12 15 19 13 12 10 12 10 9 10 8
7 9 13 18 8 5 6 4 5 7 9 17 25 27 34 39 41 40 40 36 32 29 25 22 21 17 18 21 16 10 13 9 9 7 8 11 9 11 15 17 16 16 13 12 14 11 10 10 11
10 6 10 17 5 8 2 3 2 9 9 15 15 25 28 38 37 42 41 36 32 29 25 21 23 20 19 26 18 10 12 12 9 9 11 13 10 12 14 15 16 14 10 14 16 14 10 8 8
7 4 8 7 4 2 10 6 4 9 17 21 18 27 31 30 32 39 39 36 32 29 26 22 22 22 22 27 20 15 13 13 16 12 13 13 14 13 13 10 11 14 14 12 17 17 11 8 7
5 6 1 2 1 6 13 4 6 11 16 24 20 25 29 27 24 30 35 38 34 32 28 24 22 23 27 27 22 18 16 16 14 14 16 15 14 16 15 11 9 10 15 16 18 18 16 10 9
3 8 5 5 5 2 10 6 6 12 15 13 16 22 23 20 13 20 28 37 36 32 30 26 23 22 27 30 24 19 17 16 12 14 16 12 11 14 15 12 10 12 16 15 18 17 17 14 13
3 2 6 2 1 4 4 1 7 9 4 11 14 14 21 23 25 18 21 28 34 33 34 29 23 20 26 30 26 22 20 18 14 13 14 14 12 11 12 13 11 12 16 15 17 15 14 16 18
6 3 3 4 1 3 3 4 2 4 6 6 8 13 19 20 19 19 22 31 31 27 23 27 27 23 24 28 28 26 22 20 19 14 15 15 12 12 12 13 12 14 15 15 16 17 16 17 17
4 3 5 4 4 4 4 2 3 9 10 8 11 11 18 19 21 18 18 23 23 26 14 12 20 27 26 27 30 28 25 22 18 18 18 18 16 15 14 13 14 16 16 13 13 13 17 17 17
5 5 5 5 3 3 4 2 6 13 15 14 14 21 16 11 10 7 9 13 21 16 18 14 5 19 25 23 28 27 26 25 22 20 21 19 18 17 17 14 14 15 14 14 12 12 15 15 13
Wind_Direction
122 124 137 111 69 7 208 247 346 110 60 121 158 144 141 132 157 165 145 154 154 150 151 152 145 137 135 130 125 122 122 124 125 123 122 121 117 111 108 109 108 108 112 114 115 113 112 109 107
159 137 136 68 146 166 225 304 145 101 112 103 90 98 64 83 107 132 144 157 149 144 144 149 147 142 135 130 122 118 118 119 120 124 128 126 121 118 112 114 110 108 110 116 115 114 114 112 108
169 154 263 173 190 182 231 82 130 122 129 114 107 69 75 107 130 141 146 153 150 143 142 142 143 140 135 130 127 125 123 122 120 121 124 129 127 126 119 118 112 111 113 121 121 117 115 110 109
156 188 237 248 208 142 232 5 105 107 81 93 102 77 85 124 139 145 147 151 151 146 146 144 143 140 138 131 125 126 127 124 128 120 129 128 127 125 122 121 120 111 115 124 128 124 115 107 114
176 191 229 240 196 185 229 325 150 120 75 105 107 115 100 142 136 139 148 151 149 146 146 144 142 139 134 133 132 127 125 124 122 127 121 129 129 131 127 125 124 114 114 122 133 129 121 112 116
183 78 250 215 302 265 223 91 121 100 109 108 107 115 120 141 139 145 144 147 148 146 145 142 138 136 134 132 127 121 124 123 123 125 126 127 131 129 127 126 122 118 112 123 133 126 122 115 120
215 200 238 190 156 220 86 62 72 108 120 123 129 119 138 147 145 143 144 145 147 142 141 140 140 139 134 134 127 127 124 122 121 120 125 133 134 132 127 119 116 118 116 123 133 134 129 111 113
281 354 291 185 171 146 107 83 100 70 99 133 124 149 154 157 154 148 147 151 145 139 141 144 140 140 136 134 128 125 124 125 121 119 124 129 131 128 122 120 119 118 117 122 131 135 132 112 109
12 352 330 305 169 116 135 117 101 83 130 137 346 150 153 154 161 153 151 151 150 145 142 140 136 136 131 130 127 127 126 125 119 112 115 124 125 123 121 124 121 120 119 122 127 129 130 124 110
147 277 253 325 318 169 130 126 145 107 107 70 134 143 153 164 160 156 148 149 150 145 140 133 134 133 128 131 131 131 128 124 122 109 106 118 124 123 127 125 119 120 124 127 126 131 137 135 117
154 165 203 278 283 167 129 134 138 134 140 205 157 150 151 155 168 158 152 154 146 137 135 133 135 126 130 132 135 132 129 123 127 121 107 121 126 126 131 129 123 122 123 122 119 124 124 130 127
126 236 225 298 2 123 126 136 141 154 190 171 165 157 156 156 164 159 157 155 151 147 144 141 140 126 128 124 135 129 129 132 129 122 113 121 127 130 134 121 119 122 129 127 118 117 102 93 97
221 173 215 85 302 130 141 129 140 158 147 163 171 161 160 167 172 170 159 158 154 152 149 153 154 135 138 145 127 128 129 127 135 128 123 125 135 130 126 117 119 128 127 126 122 120 106 98 83
219 189 179 179 171 151 118 76 137 176 159 162 172 171 170 169 170 170 161 163 161 156 153 159 161 149 144 139 137 141 131 133 140 137 124 131 146 140 138 129 132 130 134 129 136 121 106 151 127
254 146 159 190 164 137 114 45 28 178 176 172 173 180 174 169 175 170 165 166 168 164 166 158 157 165 161 150 142 147 152 149 156 159 154 146 155 156 144 144 130 130 133 134 148 134 110 106 128
141 285 150 156 175 167 115 168 283 210 220 175 178 183 188 172 176 170 168 169 169 167 176 175 158 159 158 154 162 164 166 165 166 168 166 163 157 156 159 140 127 134 159 148 150 147 148 124 107
14 197 123 162 189 165 164 164 184 188 213 204 187 187 192 166 173 170 169 168 167 167 175 176 164 158 167 169 170 162 177 179 187 184 167 169 173 178 178 154 141 152 143 160 164 149 149 186 131
234 25 125 156 152 37 123 147 170 190 207 215 194 188 185 164 172 170 169 171 165 161 170 184 179 174 172 171 173 167 163 184 181 181 189 184 175 178 174 166 170 171 172 156 162 153 149 174 159
296 354 62 91 101 131 113 148 187 193 204 221 191 189 173 166 166 167 168 167 168 164 164 170 184 179 179 182 183 176 167 169 174 163 165 177 175 182 179 177 183 187 178 163 160 156 150 177 194
267 136 104 75 97 57 150 144 181 204 211 210 181 187 170 166 170 169 171 171 171 170 175 183 184 177 186 189 174 155 165 162 153 153 151 158 174 181 186 182 180 187 188 184 184 176 137 168 151
259 168 182 152 109 28 263 73 139 271 200 200 189 189 178 170 173 175 179 181 180 180 186 188 196 194 191 182 184 198 192 176 164 172 164 152 159 188 186 181 179 188 185 199 200 185 155 150 152
257 212 169 146 133 171 222 217 228 171 249 191 194 186 179 176 180 181 184 183 186 188 192 196 198 197 197 192 195 199 204 206 193 184 175 163 160 173 175 176 185 191 200 203 191 191 176 161 165
239 203 183 166 125 118 259 118 263 146 197 206 202 186 177 185 178 184 187 188 190 191 195 204 205 202 201 196 195 200 201 198 209 194 188 182 175 189 192 198 203 201 203 201 199 199 189 176 183
232 87 66 57 58 86 194 161 209 181 177 206 201 189 178 176 179 186 191 191 192 196 199 202 207 207 200 200 201 207 219 219 215 212 198 195 193 185 203 207 209 210 204 195 198 199 199 204 202
106 76 89 102 250 229 159 179 245 185 180 195 179 181 189 174 176 179 195 193 194 197 202 208 210 208 200 203 209 205 218 220 216 220 203 211 204 203 203 208 214 214 210 203 203 210 198 220 216
140 141 154 184 172 181 151 202 268 194 178 178 177 178 178 183 163 196 192 198 199 203 208 211 214 211 202 204 210 211 215 211 218 201 204 208 207 202 202 208 204 198 205 219 214 214 210 222 224
254 94 194 96 91 96 182 19 29 62 77 142 139 161 180 167 184 179 183 188 191 197 207 212 221 211 206 206 209 213 216 213 205 205 203 194 193 194 211 226 229 211 208 215 221 217 219 227 225
135 168 67 20 250 128 347 64 310 84 78 58 138 163 144 140 145 155 160 168 170 179 198 213 224 222 213 214 213 212 218 217 209 200 202 208 207 219 232 236 241 233 211 220 225 230 227 226 227
37 61 58 112 118 161 142 6 293 103 93 87 85 142 153 128 130 138 142 162 175 181 175 188 227 226 225 220 218 221 221 226 221 214 214 222 227 238 236 238 247 238 214 213 220 222 224 230 228
141 138 113 117 272 92 104 81 93 101 89 90 81 93 129 112 154 160 158 164 193 205 230 237 202 218 222 229 232 223 228 225 228 229 222 228 230 234 236 236 237 233 226 210 209 224 222 229 228